This is the latest recevied weather packets stored in our database for station/object SP2WPY-13. If no packets are shown the sender has not sent any weather packets the latest 10 day(s).
| Time | Temp. | Humidity | Pressure | Rain* | Wind** | Luminosity | Snow |
|---|---|---|---|---|---|---|---|
| 1777201104 | 7.78° C | 44% | 1022.7 hPa | - | - | - | - |
| 1777200784 | 7.78° C | 42% | 1022.9 hPa | - | - | - | - |
| 1777200510 | 7.78° C | 43% | 1022.7 hPa | - | - | - | - |
| 1777200190 | 7.78° C | 46% | 1022.8 hPa | - | - | - | - |
| 1777199916 | 7.78° C | 43% | 1022.6 hPa | - | - | - | - |
| 1777199596 | 7.22° C | 44% | 1022.7 hPa | - | - | - | - |
| 1777199322 | 7.22° C | 46% | 1022.6 hPa | - | - | - | - |
| 1777199003 | 6.67° C | 47% | 1022.5 hPa | - | - | - | - |
| 1777198682 | 7.22° C | 45% | 1022.4 hPa | - | - | - | - |
| 1777198409 | 6.67° C | 47% | 1022.5 hPa | - | - | - | - |
| 1777198089 | 7.22° C | 46% | 1022.3 hPa | - | - | - | - |
| 1777197815 | 7.22° C | 45% | 1022.3 hPa | - | - | - | - |
| 1777197495 | 7.22° C | 46% | 1022.2 hPa | - | - | - | - |
| 1777197222 | 6.67° C | 46% | 1022.3 hPa | - | - | - | - |
| 1777196901 | 6.67° C | 47% | 1022.2 hPa | - | - | - | - |
| 1777196582 | 6.67° C | 45% | 1022 hPa | - | - | - | - |
| 1777196309 | 6.67° C | 46% | 1022.1 hPa | - | - | - | - |
| 1777195988 | 6.67° C | 44% | 1022.1 hPa | - | - | - | - |
| 1777195715 | 7.22° C | 46% | 1021.9 hPa | - | - | - | - |
| 1777195395 | 6.67° C | 47% | 1021.8 hPa | - | - | - | - |
| 1777195120 | 6.67° C | 46% | 1021.7 hPa | - | - | - | - |
| 1777194802 | 6.67° C | 45% | 1021.6 hPa | - | - | - | - |
| 1777194481 | 6.67° C | 48% | 1021.4 hPa | - | - | - | - |
| 1777194209 | 6.67° C | 46% | 1021.3 hPa | - | - | - | - |
| 1777193888 | 6.67° C | 44% | 1021.3 hPa | - | - | - | - |
* Rain since midnight (hover to see other rain measurements)
** Current wind speed in m/s (hover to see current wind gust speed)